JBU270 KPHX-KSAN

Flight info

Callsign JBU270
Flight time 0h 49m
Altitude 30000
Route FYRBD1 MOHAK J2 HOGGZ LUCKI1
Aircraft A320/M-SDE3FGHIRWY/LB1

Departure

Time 2026-05-04 01:43
Airport Phoenix Sky Harbor International Airport (KPHX)

Arrival

Time 2026-05-04 02:32
Airport San Diego International Airport (KSAN)
Time Latitude Longitude Altitude Speed Heading
2026-05-04 01:23 33.43348 -111.99944 1135 ft 0 kts
2026-05-04 01:31 33.43346 -111.99944 1134 ft 3 kts
2026-05-04 01:31 33.43320 -111.99947 1134 ft 4 kts 16°
2026-05-04 01:31 33.43296 -111.99960 1131 ft 4 kts 45°
2026-05-04 01:31 33.43286 -111.99984 1131 ft 3 kts 97°
2026-05-04 01:32 33.43291 -111.99997 1137 ft 4 kts 22°
2026-05-04 01:32 33.43287 -111.99998 1131 ft 4 kts 48°
2026-05-04 01:32 33.43284 -112.00000 1136 ft 1 kts 90°
2026-05-04 01:35 33.43284 -111.99995 1132 ft 2 kts 90°
2026-05-04 01:35 33.43284 -111.99962 1133 ft 6 kts 90°
2026-05-04 01:36 33.43284 -111.99897 1131 ft 10 kts 90°
2026-05-04 01:36 33.43284 -111.99806 1131 ft 12 kts 91°
2026-05-04 01:36 33.43284 -111.99756 1133 ft 0 kts 90°
2026-05-04 01:37 33.43283 -111.99740 1131 ft 4 kts 91°
2026-05-04 01:37 33.43283 -111.99695 1132 ft 7 kts 90°
2026-05-04 01:38 33.43283 -111.99629 1133 ft 9 kts 90°
2026-05-04 01:38 33.43283 -111.99546 1131 ft 11 kts 90°
2026-05-04 01:38 33.43283 -111.99462 1134 ft 5 kts 90°
2026-05-04 01:38 33.43283 -111.99410 1131 ft 7 kts 89°
2026-05-04 01:39 33.43283 -111.99342 1135 ft 9 kts 90°
2026-05-04 01:39 33.43283 -111.99287 1131 ft 0 kts 90°
2026-05-04 01:40 33.43283 -111.99282 1131 ft 2 kts 90°
2026-05-04 01:40 33.43282 -111.99257 1131 ft 4 kts 90°
2026-05-04 01:40 33.43266 -111.99227 1133 ft 5 kts 162°
2026-05-04 01:40 33.43229 -111.99242 1132 ft 6 kts 218°
2026-05-04 01:41 33.43202 -111.99272 1137 ft 3 kts 223°
2026-05-04 01:41 33.43184 -111.99293 1133 ft 4 kts 224°
2026-05-04 01:41 33.43163 -111.99318 1137 ft 6 kts 224°
2026-05-04 01:41 33.43120 -111.99345 1136 ft 8 kts 182°
2026-05-04 01:42 33.43102 -111.99382 1137 ft 0 kts 274°
2026-05-04 01:42 33.43103 -111.99398 1135 ft 13 kts 273°
2026-05-04 01:42 33.43104 -111.99818 1134 ft 85 kts 270°
2026-05-04 01:43 33.43105 -112.00754 1136 ft 137 kts 270°
2026-05-04 01:43 33.43091 -112.02010 1478 ft 151 kts 268°
2026-05-04 01:43 33.43027 -112.03261 2245 ft 151 kts 266°
2026-05-04 01:43 33.42964 -112.04551 2740 ft 161 kts 266°
2026-05-04 01:44 33.42897 -112.05916 3210 ft 165 kts 266°
2026-05-04 01:44 33.42833 -112.07295 3687 ft 167 kts 261°
2026-05-04 01:44 33.42517 -112.08633 4144 ft 170 kts 245°
2026-05-04 01:44 33.42065 -112.10031 4344 ft 191 kts 245°
2026-05-04 01:45 33.41560 -112.11608 4518 ft 215 kts 246°
2026-05-04 01:45 33.41005 -112.13355 4801 ft 239 kts 246°
2026-05-04 01:45 33.39259 -112.17009 5837 ft 264 kts 217°
2026-05-04 01:46 33.37602 -112.17948 6611 ft 268 kts 191°
2026-05-04 01:46 33.35737 -112.17882 7401 ft 274 kts 168°
2026-05-04 01:46 33.33898 -112.17250 8237 ft 276 kts 166°
2026-05-04 01:46 33.32048 -112.16589 9035 ft 278 kts 166°
2026-05-04 01:47 33.30190 -112.15923 9806 ft 280 kts 166°
2026-05-04 01:47 33.28294 -112.15356 10536 ft 281 kts 178°
2026-05-04 01:47 33.26394 -112.15655 11253 ft 281 kts 202°
2026-05-04 01:47 33.24778 -112.16971 11981 ft 285 kts 227°
2026-05-04 01:48 33.23822 -112.19058 12724 ft 293 kts 253°
2026-05-04 01:48 33.23588 -112.21499 13470 ft 297 kts 262°
2026-05-04 01:48 33.23197 -112.23917 14158 ft 297 kts 250°
2026-05-04 01:48 33.22305 -112.26132 14923 ft 297 kts 235°
2026-05-04 01:49 33.21084 -112.28123 15685 ft 298 kts 233°
2026-05-04 01:49 33.19836 -112.30075 16399 ft 300 kts 233°
2026-05-04 01:49 33.18534 -112.32083 16749 ft 315 kts 233°
2026-05-04 01:49 33.17148 -112.34215 16877 ft 335 kts 233°
2026-05-04 01:50 33.15679 -112.36474 17005 ft 353 kts 233°
2026-05-04 01:50 33.14137 -112.38847 17130 ft 370 kts 233°
2026-05-04 01:50 33.12525 -112.41332 17259 ft 386 kts 233°
2026-05-04 01:50 33.10852 -112.43916 17382 ft 401 kts 233°
2026-05-04 01:51 33.09123 -112.46589 17571 ft 412 kts 233°
2026-05-04 01:51 33.07363 -112.49317 17961 ft 417 kts 233°
2026-05-04 01:51 33.05587 -112.52069 18429 ft 420 kts 233°
2026-05-04 01:51 33.03795 -112.54844 18935 ft 423 kts 234°
2026-05-04 01:52 33.01996 -112.57623 19455 ft 424 kts 234°
2026-05-04 01:52 33.00189 -112.60410 19945 ft 426 kts 234°
2026-05-04 01:52 32.98373 -112.63205 20422 ft 428 kts 234°
2026-05-04 01:52 32.96720 -112.66085 20850 ft 427 kts 242°
2026-05-04 01:53 32.95547 -112.69332 21272 ft 426 kts 253°
2026-05-04 01:53 32.94919 -112.72781 21663 ft 427 kts 261°
2026-05-04 01:53 32.94455 -112.76281 22044 ft 428 kts 261°
2026-05-04 01:53 32.93983 -112.79786 22435 ft 429 kts 260°
2026-05-04 01:54 32.93508 -112.83298 22826 ft 430 kts 260°
2026-05-04 01:54 32.93033 -112.86815 23211 ft 431 kts 260°
2026-05-04 01:54 32.92556 -112.90341 23596 ft 432 kts 261°
2026-05-04 01:54 32.92078 -112.93874 23981 ft 432 kts 260°
2026-05-04 01:55 32.91596 -112.97411 24323 ft 433 kts 260°
2026-05-04 01:55 32.91119 -113.00901 24747 ft 432 kts 261°
2026-05-04 01:55 32.90638 -113.04431 25261 ft 430 kts 261°
2026-05-04 01:55 32.90158 -113.07934 25810 ft 427 kts 261°
2026-05-04 01:56 32.89681 -113.11410 26365 ft 424 kts 261°
2026-05-04 01:56 32.89206 -113.14866 26926 ft 421 kts 261°
2026-05-04 01:56 32.88731 -113.18292 27513 ft 418 kts 261°
2026-05-04 01:56 32.88259 -113.21687 28097 ft 414 kts 261°
2026-05-04 01:57 32.87793 -113.25052 28687 ft 410 kts 261°
2026-05-04 01:57 32.87337 -113.28339 29274 ft 406 kts 261°
2026-05-04 01:57 32.87180 -113.29464 29462 ft 405 kts 261°
2026-05-04 01:57 32.86722 -113.32762 29742 ft 403 kts 261°
2026-05-04 01:58 32.85620 -113.40710 29814 ft 399 kts 261°
2026-05-04 01:58 32.84705 -113.47215 29801 ft 399 kts 261°
2026-05-04 01:59 32.83786 -113.53716 29805 ft 399 kts 261°
2026-05-04 01:59 32.82868 -113.60225 29804 ft 399 kts 261°
2026-05-04 02:00 32.81801 -113.67791 29799 ft 399 kts 261°
2026-05-04 02:00 32.81033 -113.73198 29794 ft 399 kts 261°
2026-05-04 02:01 32.80103 -113.79703 29794 ft 398 kts 261°
2026-05-04 02:01 32.79170 -113.86184 29792 ft 398 kts 261°
2026-05-04 02:02 32.78244 -113.92659 29792 ft 397 kts 261°
2026-05-04 02:02 32.77562 -113.99159 29789 ft 398 kts 268°
2026-05-04 02:03 32.77496 -114.05737 29786 ft 398 kts 268°
2026-05-04 02:03 32.77592 -114.12316 29786 ft 399 kts 270°
2026-05-04 02:04 32.77907 -114.18898 29782 ft 399 kts 271°
2026-05-04 02:04 32.78232 -114.25479 29781 ft 399 kts 271°
2026-05-04 02:05 32.78507 -114.32021 29781 ft 399 kts 270°
2026-05-04 02:05 32.79299 -114.38537 29784 ft 404 kts 282°
2026-05-04 02:06 32.80947 -114.44926 29779 ft 404 kts 283°
2026-05-04 02:06 32.82601 -114.51313 29777 ft 404 kts 282°
2026-05-04 02:07 32.84253 -114.57707 29777 ft 405 kts 282°
2026-05-04 02:07 32.85893 -114.64120 29777 ft 405 kts 282°
2026-05-04 02:08 32.87507 -114.70536 29775 ft 404 kts 279°
2026-05-04 02:08 32.87836 -114.77112 29772 ft 398 kts 266°
2026-05-04 02:09 32.87683 -114.83698 29769 ft 398 kts 267°
2026-05-04 02:09 32.87548 -114.90250 29769 ft 399 kts 267°
2026-05-04 02:10 32.87400 -114.96834 29771 ft 398 kts 266°
2026-05-04 02:10 32.87242 -115.03416 29772 ft 398 kts 266°
2026-05-04 02:11 32.87086 -115.10002 29772 ft 398 kts 266°
2026-05-04 02:11 32.86929 -115.16595 29581 ft 398 kts 266°
2026-05-04 02:12 32.86847 -115.19890 29337 ft 399 kts 266°
2026-05-04 02:12 32.86762 -115.23191 29080 ft 400 kts 266°
2026-05-04 02:12 32.86677 -115.26508 28748 ft 402 kts 266°
2026-05-04 02:12 32.86593 -115.29838 28374 ft 403 kts 266°
2026-05-04 02:13 32.86507 -115.33176 28000 ft 405 kts 265°
2026-05-04 02:13 32.86167 -115.36461 27572 ft 406 kts 260°
2026-05-04 02:13 32.85706 -115.39789 26991 ft 409 kts 260°
2026-05-04 02:13 32.85235 -115.43135 26364 ft 412 kts 259°
2026-05-04 02:14 32.84753 -115.46503 25738 ft 414 kts 259°
2026-05-04 02:14 32.84269 -115.49879 25114 ft 414 kts 259°
2026-05-04 02:14 32.83752 -115.53243 24486 ft 412 kts 258°
2026-05-04 02:14 32.83208 -115.56582 23860 ft 410 kts 258°
2026-05-04 02:15 32.82652 -115.59898 23235 ft 408 kts 258°
2026-05-04 02:15 32.82092 -115.63188 22597 ft 404 kts 257°
2026-05-04 02:15 32.81535 -115.66463 21972 ft 404 kts 258°
2026-05-04 02:15 32.80996 -115.69713 21346 ft 400 kts 258°
2026-05-04 02:16 32.80476 -115.72907 20728 ft 397 kts 257°
2026-05-04 02:16 32.79949 -115.76131 20396 ft 395 kts 258°
2026-05-04 02:16 32.79423 -115.79345 20146 ft 396 kts 258°
2026-05-04 02:16 32.78890 -115.82560 19902 ft 395 kts 257°
2026-05-04 02:17 32.78442 -115.85775 19655 ft 394 kts 263°
2026-05-04 02:17 32.78201 -115.89024 19404 ft 395 kts 263°
2026-05-04 02:17 32.77968 -115.92232 19158 ft 394 kts 263°
2026-05-04 02:17 32.77731 -115.95471 18907 ft 393 kts 263°
2026-05-04 02:18 32.77489 -115.98683 18427 ft 387 kts 263°
2026-05-04 02:18 32.77249 -116.01846 17616 ft 383 kts 263°
2026-05-04 02:18 32.77013 -116.04976 16816 ft 379 kts 263°
2026-05-04 02:18 32.76776 -116.08096 15934 ft 379 kts 263°
2026-05-04 02:19 32.76539 -116.11208 15055 ft 378 kts 263°
2026-05-04 02:19 32.76300 -116.14329 14259 ft 378 kts 263°
2026-05-04 02:19 32.76068 -116.17371 13996 ft 362 kts 262°
2026-05-04 02:19 32.75848 -116.20286 13762 ft 346 kts 262°
2026-05-04 02:20 32.75638 -116.23056 13624 ft 324 kts 262°
2026-05-04 02:20 32.75445 -116.25631 13222 ft 305 kts 262°
2026-05-04 02:20 32.75254 -116.28121 12613 ft 302 kts 262°
2026-05-04 02:20 32.75060 -116.30575 12182 ft 302 kts 262°
2026-05-04 02:21 32.74864 -116.33055 11741 ft 301 kts 262°
2026-05-04 02:21 32.74669 -116.35529 11303 ft 301 kts 262°
2026-05-04 02:21 32.74475 -116.38004 10868 ft 301 kts 262°
2026-05-04 02:21 32.74286 -116.40436 10729 ft 291 kts 262°
2026-05-04 02:22 32.74101 -116.42791 10558 ft 282 kts 262°
2026-05-04 02:22 32.73908 -116.45099 10263 ft 280 kts 262°
2026-05-04 02:22 32.73723 -116.47393 9979 ft 279 kts 262°
2026-05-04 02:22 32.73546 -116.49689 9966 ft 281 kts 262°
2026-05-04 02:23 32.73359 -116.52001 9797 ft 280 kts 262°
2026-05-04 02:23 32.73149 -116.54268 9460 ft 280 kts 261°
2026-05-04 02:23 32.72924 -116.56559 9052 ft 279 kts 261°
2026-05-04 02:23 32.72683 -116.58858 8703 ft 281 kts 261°
2026-05-04 02:24 32.72443 -116.61149 8383 ft 279 kts 261°
2026-05-04 02:24 32.72220 -116.63435 8086 ft 276 kts 262°
2026-05-04 02:24 32.72008 -116.65699 7978 ft 277 kts 262°
2026-05-04 02:24 32.71809 -116.67974 7824 ft 276 kts 262°
2026-05-04 02:25 32.71630 -116.70242 7498 ft 275 kts 263°
2026-05-04 02:25 32.71460 -116.72494 7193 ft 273 kts 263°
2026-05-04 02:25 32.71292 -116.74728 6858 ft 269 kts 262°
2026-05-04 02:25 32.71126 -116.76940 6260 ft 269 kts 263°
2026-05-04 02:26 32.70956 -116.79144 6017 ft 265 kts 262°
2026-05-04 02:26 32.70786 -116.81249 5977 ft 253 kts 259°
2026-05-04 02:26 32.70325 -116.83198 5905 ft 241 kts 248°
2026-05-04 02:26 32.69751 -116.85034 5773 ft 233 kts 248°
2026-05-04 02:27 32.69184 -116.86847 5406 ft 236 kts 248°
2026-05-04 02:27 32.68609 -116.88677 5025 ft 238 kts 248°
2026-05-04 02:27 32.68045 -116.90540 4649 ft 241 kts 249°
2026-05-04 02:27 32.67497 -116.92435 4269 ft 244 kts 252°
2026-05-04 02:28 32.67399 -116.94453 3892 ft 249 kts 278°
2026-05-04 02:28 32.67850 -116.96402 3611 ft 237 kts 284°
2026-05-04 02:28 32.68306 -116.98223 3590 ft 223 kts 283°
2026-05-04 02:28 32.68739 -116.99977 3342 ft 221 kts 283°
2026-05-04 02:29 32.69163 -117.01712 3087 ft 218 kts 283°
2026-05-04 02:29 32.69585 -117.03439 2788 ft 217 kts 284°
2026-05-04 02:29 32.69993 -117.05108 2507 ft 202 kts 284°
2026-05-04 02:29 32.70366 -117.06633 2275 ft 182 kts 285°
2026-05-04 02:30 32.70703 -117.08025 2047 ft 168 kts 285°
2026-05-04 02:30 32.71011 -117.09295 1815 ft 154 kts 285°
2026-05-04 02:30 32.71301 -117.10489 1564 ft 148 kts 286°
2026-05-04 02:30 32.71579 -117.11641 1335 ft 146 kts 286°
2026-05-04 02:31 32.71854 -117.12782 1114 ft 141 kts 288°
2026-05-04 02:31 32.72123 -117.13889 890 ft 138 kts 288°
2026-05-04 02:31 32.72389 -117.14981 671 ft 138 kts 288°
2026-05-04 02:31 32.72648 -117.16067 455 ft 135 kts 287°
2026-05-04 02:32 32.72906 -117.17138 214 ft 134 kts 288°
2026-05-04 02:32 32.73169 -117.18200 43 ft 130 kts 288°
2026-05-04 02:32 32.73394 -117.19115 24 ft 95 kts 286°
2026-05-04 02:32 32.73457 -117.19426 26 ft 11 kts 248°
2026-05-04 02:33 32.73414 -117.19498 27 ft 10 kts 215°
2026-05-04 02:33 32.73369 -117.19453 27 ft 11 kts 101°
2026-05-04 02:33 32.73345 -117.19346 25 ft 15 kts 106°
2026-05-04 02:33 32.73318 -117.19237 23 ft 13 kts 106°
2026-05-04 02:34 32.73315 -117.19222 24 ft 0 kts 106°
2026-05-04 02:34 32.73315 -117.19220 24 ft 2 kts 105°
2026-05-04 02:34 32.73338 -117.19163 24 ft 15 kts 37°
2026-05-04 02:35 32.73440 -117.19085 25 ft 19 kts 36°
2026-05-04 02:35 32.73476 -117.18992 22 ft 6 kts 104°
2026-05-04 02:35 32.73469 -117.18961 22 ft 0 kts 105°
2026-05-04 02:35 32.73467 -117.18952 22 ft 2 kts 104°
2026-05-04 02:36 32.73462 -117.18928 22 ft 0 kts 106°
2026-05-04 02:37 32.73457 -117.18911 22 ft 5 kts 106°
2026-05-04 02:37 32.73444 -117.18856 22 ft 8 kts 106°
2026-05-04 02:37 32.73425 -117.18776 22 ft 11 kts 106°
2026-05-04 02:37 32.73404 -117.18689 23 ft 11 kts 106°
2026-05-04 02:38 32.73385 -117.18614 24 ft 4 kts 106°
2026-05-04 02:38 32.73377 -117.18579 28 ft 5 kts 105°
2026-05-04 02:38 32.73366 -117.18535 26 ft 7 kts 106°
2026-05-04 02:38 32.73351 -117.18474 27 ft 9 kts 107°
2026-05-04 02:39 32.73372 -117.18409 29 ft 11 kts 32°
2026-05-04 02:39 32.73408 -117.18393 26 ft 0 kts 15°
2026-05-04 02:40 32.73410 -117.18392 26 ft 4 kts 16°
2026-05-04 02:40 32.73409 -117.18358 26 ft 6 kts 106°
2026-05-04 02:40 32.73400 -117.18316 25 ft 3 kts 105°
2026-05-04 02:40 32.73397 -117.18304 25 ft 0 kts 106°